Laramie, WY

7:46 AM MDT on April 20, 2018 (GMT -0600)
Laramie Regional

Weather History for KLAR - September, 2012

Change the Weather History Date:

Friday, September 14, 2012

  Actual Average Record
Temperature  
Mean Temperature 54 °F 54 °F  
Max Temperature 75 °F 69 °F 86 °F (1948)
Min Temperature 32 °F 39 °F 20 °F (1993)
Degree Days  
Heating Degree Days 11 11  
Month to date heating degree days 92 120  
Since 1 July heating degree days 149 292  
Cooling Degree Days 0 0  
Month to date cooling degree days 0 0  
Year to date cooling degree days 211 66  
Growing Degree Days 3 (Base 50)    
Moisture  
Dew Point 27 °F    
Average Humidity 46    
Maximum Humidity 82    
Minimum Humidity 9    
Precipitation  
Precipitation 0.00 in 0.04 in 0.47 in (1988)
Month to date precipitation 0.20 0.53  
Year to date precipitation 4.62 8.68  
Sea Level Pressure  
Sea Level Pressure 30.27 in    
Wind  
Wind Speed 8 mph (South)    
Max Wind Speed 21 mph    
Max Gust Speed 25 mph    
Visibility 10 miles    
Events      
T = Trace of Precipitation, MM = Missing Value Source: NWS Daily Summary

Daily Weather History Graph

Daily Weather History Graph

Search for Another Location

Airport or City:

Astronomy

Sep. 14, 2012 Rise Set
Actual Time 6:42 AM MDT 7:12 PM MDT
Civil Twilight 6:14 AM MDT 7:40 PM MDT
Nautical Twilight 5:42 AM MDT 8:13 PM MDT
Astronomical Twilight 5:08 AM MDT 8:46 PM MDT
Moon 5:09 AM MDT (9/14) 6:10 PM MDT (9/14)
Length of Visible Light 13h 25m
Length of Day
12h 30m
Waning Crescent, 2% of the Moon is Illuminated
Sep 14
Waning Crescent
Sep 15
New
Sep 22
First Quarter
Sep 29
Full
Oct 8
Last Quarter

Hourly Weather History & Observations

Time (MDT) Temp. Windchill Dew Point Humidity Pressure Visibility Wind Dir Wind Speed Gust Speed Precip Events Conditions
12:53 AM 44.1 °F 39.0 °F 36.0 °F 73% 30.35 in 10.0 mi South 9.2 mph - N/A   Clear
1:53 AM 37.9 °F 32.7 °F 32.0 °F 79% 30.36 in 10.0 mi South 6.9 mph - N/A   Clear
2:53 AM 36.0 °F 29.6 °F 30.0 °F 79% 30.35 in 10.0 mi SSW 8.1 mph - N/A   Clear
3:53 AM 35.1 °F 28.6 °F 28.9 °F 78% 30.35 in 10.0 mi SSW 8.1 mph - N/A   Clear
4:53 AM 35.1 °F 30.1 °F 28.0 °F 76% 30.35 in 10.0 mi South 5.8 mph - N/A   Clear
5:53 AM 34.0 °F 27.2 °F 27.0 °F 75% 30.36 in 10.0 mi South 8.1 mph - N/A   Clear
6:53 AM 33.1 °F 26.1 °F 27.0 °F 78% 30.38 in 10.0 mi SSW 8.1 mph - N/A   Clear
7:53 AM 39.0 °F 35.7 °F 33.1 °F 79% 30.38 in 10.0 mi South 4.6 mph - N/A   Clear
8:53 AM 46.9 °F - 30.0 °F 52% 30.36 in 10.0 mi SSW 6.9 mph - N/A   Clear
9:53 AM 57.0 °F - 32.0 °F 39% 30.32 in 10.0 mi South 5.8 mph - N/A   Clear
10:53 AM 63.0 °F - 28.0 °F 27% 30.30 in 10.0 mi SE 6.9 mph - N/A   Clear
11:53 AM 66.9 °F - 24.1 °F 20% 30.27 in 10.0 mi Calm Calm - N/A   Clear
12:53 PM 70.0 °F - 19.0 °F 14% 30.24 in 10.0 mi SSE 6.9 mph - N/A   Clear
1:53 PM 71.1 °F - 17.1 °F 13% 30.23 in 10.0 mi Calm Calm - N/A   Clear
2:53 PM 73.0 °F - 17.1 °F 12% 30.20 in 10.0 mi North 5.8 mph - N/A   Clear
3:53 PM 73.9 °F - 15.1 °F 11% 30.19 in 10.0 mi Variable 3.5 mph - N/A   Clear
4:53 PM 73.0 °F - 12.9 °F 10% 30.17 in 10.0 mi Variable 3.5 mph - N/A   Clear
5:53 PM 71.1 °F - 25.0 °F 18% 30.18 in 10.0 mi South 11.5 mph - N/A   Clear
6:53 PM 64.0 °F - 30.9 °F 29% 30.21 in 10.0 mi SSE 16.1 mph - N/A   Clear
7:53 PM 57.9 °F - 28.9 °F 33% 30.22 in 10.0 mi SSE 13.8 mph - N/A   Clear
8:53 PM 55.0 °F - 28.0 °F 35% 30.20 in 10.0 mi SE 12.7 mph - N/A   Clear
9:53 PM 53.1 °F - 28.9 °F 40% 30.17 in 10.0 mi South 10.4 mph - N/A   Clear
10:53 PM 51.1 °F - 28.9 °F 43% 30.15 in 10.0 mi SSE 11.5 mph - N/A   Clear
11:53 PM 48.0 °F - 28.9 °F 48% 30.14 in 10.0 mi South 11.5 mph - N/A   Clear